Regional Weather Roundup
Issued by NWS

Home | Current Version | Previous Version | Text Only | Print | Product List | Glossary Off
Versions: 1 2 3 4 5 6 7 8 9 10 11 12 13 14 15 16 17 18 19 20 21 22 23 24 25 26 27 28 29 30 31 32 33 34 35 36 37 38 39 40 41 42 43 44 45 46 47 48 49 50

000
ASUS43 KMPX 010710
RWRMN
WEATHER ROUNDUP FOR MINNESOTA
NATIONAL WEATHER SERVICE TWIN CITIES/CHANHASSEN MN
200 AM CDT SAT OCT 01 2016


NOTE: "FAIR" INDICATES FEW OR NO CLOUDS BELOW 12,000 FEET WITH NO
SIGNIFICANT WEATHER AND/OR OBSTRUCTIONS TO VISIBILITY. N/A MEANS
CURRENT SKY AND/OR WEATHER CONDITIONS ARE NOT AVAILABLE.

MNZ060>063-068>070-010800-
   Twin Cities Metro

CITY           SKY/WX    TMP DP  RH WIND       PRES   REMARKS
TWIN CITIES    PTCLDY    57  51  80 N3        30.20S
ST PAUL        CLEAR     56  52  86 N3        30.21S
CRYSTAL        CLEAR     54  50  86 CALM      30.19F
BLAINE         CLEAR     54  54 100 CALM      30.21S
LAKEVILLE      CLEAR     55  52  88 NE3       30.19S
EDEN PRAIRIE   PTCLDY    58  52  80 NE6       30.18F
LAKEVILLE      CLEAR     55  52  88 NE3       30.19S
SOUTH ST PAUL  CLEAR     58  52  80 NE8       30.19S
LAKE ELMO      FAIR      54  52  94 NE5       30.21S
$$
MNZ001>005-007-008-013>017-022>024-027-028-010800-
   Northwest Minnesota

CITY           SKY/WX    TMP DP  RH WIND       PRES   REMARKS
BEMIDJI        CLOUDY    47  46  95 E7        30.23S
HALLOCK        CLOUDY    57  52  82 SE9       30.18S
ROSEAU         PTCLDY    54  48  82 SE5       30.22F
WARROAD        MOCLDY    52  46  82 SE7       30.24S
THIEF RVR FALL CLOUDY    52  49  89 E6        30.22S
CROOKSTON      PTCLDY    54  48  82 SE8       30.20S
FOSSTON        CLOUDY    50  45  81 SE5       30.22R
DETROIT LAKES  PTCLDY    52  46  82 SE6       30.23S
MOORHEAD       PTCLDY    54  48  82 SE8       30.19S
PARK RAPIDS    CLOUDY    48  44  86 CALM      30.22F
MAHNOMEN       FAIR      51  46  84 SE6       30.21S
$$
MNZ006-009>011-018-025>026-010800-
   North Central Minnesota

CITY           SKY/WX    TMP DP  RH WIND       PRES   REMARKS
BAUDETTE       CLOUDY    47  45  93 SE5       30.26R
FLAG ISLAND    MOCLDY    55  52  88 S14       30.23S
INTL FALLS     CLOUDY    43  42  97 SE6       30.26F
WASKISH        CLOUDY    43  43 100 CALM      30.24S
BIG FORK       CLOUDY    39  37  93 CALM      30.26S FOG
LONGVILLE      CLOUDY    48  48 100 CALM      30.24S
GRAND RAPIDS   CLOUDY    48  48 100 VRB3      30.27S FOG
CRANE LAKE     CLEAR     37  36  93 CALM      30.30S
ORR            CLEAR     39  37  93 CALM      30.25S
COOK           CLEAR     43  43 100 CALM      30.27S
WALKER         FAIR      49  48  95 E5        30.23F
$$
MNZ012-019>021-037-010800-
   Northeast Minnesota

CITY           SKY/WX    TMP DP  RH WIND       PRES   REMARKS
DULUTH         CLOUDY    51  51 100 E7        30.26S FOG
ELY            PTCLDY    45  43  93 CALM      30.28S
HIBBING        CLEAR     38  38 100 CALM      30.26S FOG
EVELETH        CLEAR     46  45  95 CALM      30.27S
DULUTH HARBOR  CLOUDY    54  52  94 E9        30.27F
TWO HARBORS    PTCLDY    52  46  82 CALM      30.25S
SILVER BAY     CLEAR     52  48  87 N3        30.25F
GRAND MARAIS     N/A     57  41  55 NE5       30.27F
G MARAIS ARPRT CLEAR     46  39  76 CALM      30.31S
$$
MNZ029>031-032-039>041-046>048-054>057-064-010800-
   West Central Minnesota

CITY           SKY/WX    TMP DP  RH WIND       PRES   REMARKS
FERGUS FALLS   CLEAR     54  48  82 E5        30.22S
MORRIS         CLEAR     48  46  93 E7        30.18F
ALEXANDRIA     CLEAR     51  50  96 E7        30.22S
ELBOW LAKE     FAIR      52  50  93 SE7       30.19F
WADENA         CLOUDY    46  46 100 E6        30.21F
GLENWOOD       CLEAR     48  46  93 NE7       30.22R
BENSON         CLEAR     43  41  93 CALM      30.20R
ORTONVILLE     PTCLDY    48  45  87 CALM      30.18S
MADISON        CLOUDY    50  48  93 CALM      30.19R
WILLMAR        FAIR      55  52  88 E7        30.21S
$$
MNZ033>034-036-042>043-049>051-058-059-010800-
   Central Minnesota

CITY           SKY/WX    TMP DP  RH WIND       PRES   REMARKS
ST CLOUD       CLOUDY    53  53 100 E3        30.22S
SAUK CENTRE    FAIR      49  49  97 E3        30.22S
PAYNESVILLE    CLEAR     49  49 100 CALM      30.22R
AITKIN         MOCLDY    52  46  82 CALM      30.24S
PINE RIVER     CLOUDY    52  52 100 SE5       30.26F
BRAINERD       CLOUDY    52  51  97 VRB3      30.24S
STAPLES        CLOUDY    48  48 100 CALM      30.23S FOG
LONG PRAIRIE   FAIR      46  46 100 CALM      30.22S FOG
LITTLE FALLS   CLOUDY    50  48  93 CALM      30.23S
LITCHFIELD     CLEAR     55  54  94 NE3       30.21S
BUFFALO        CLEAR     53  51  90 NE6       30.21S
MAPLE LAKE     CLEAR     52  51  97 NE3       30.22S
HUTCHINSON     CLOUDY    54  52  93 NE5       30.20F
$$
MNZ037-044-045-052-053-010800-
   East Central Minnesota

CITY           SKY/WX    TMP DP  RH WIND       PRES   REMARKS
PRINCETON      CLOUDY    54  52  94 NE3       30.23S
MORA           CLOUDY    50  48  93 CALM      30.25S
CAMBRIDGE      CLOUDY    55  50  82 CALM      30.21S
MOOSE LAKE     CLOUDY    50  48  93 NE3       30.23F
HINCKLEY       PTSUNNY   50  50 100 N3        30.24S
CLOQUET        CLOUDY    52  48  87 E3        30.25F
MCGREGOR       CLOUDY    50  48  93 CALM      30.25R
$$
MNZ071>073-080-081-089-090-097-098-010800-
   Southwest Minnesota

CITY           SKY/WX    TMP DP  RH WIND       PRES   REMARKS
MONTEVIDEO     CLEAR     46  43  87 CALM      30.21R
GRANITE FALLS  CLEAR     47  46  93 W3        30.21R
CANBY          PTCLDY    46  44  91 CALM      30.19S
MARSHALL       CLOUDY    46  44  93 CALM      30.19S
REDWOOD FALLS  CLEAR     55  49  80 E5        30.19R
OLIVIA         CLEAR     54  50  87 E5        30.18S
PIPESTONE      CLOUDY    54  48  82 SE3       30.18S
WINDOM         CLOUDY    55  50  82 CALM      30.19S
WORTHINGTON    CLOUDY    50  48  93 CALM      30.19S
JACKSON        CLOUDY    59  52  77 CALM      30.19S
TRACY          CLEAR     55  50  83 SE6       30.19S
SLAYTON        CLEAR     46  46 100 CALM      30.20S
$$
MNZ065>067-074>077-082>085-091>093-010800-
   South Central Minnesota

CITY           SKY/WX    TMP DP  RH WIND       PRES   REMARKS
MANKATO        CLOUDY    60  53  77 NE5       30.18S
NEW ULM          N/A     57  52  82 E6        30.18S
ST JAMES       MOCLDY    57  54  88 CALM      30.19R
FAIRMONT       CLOUDY    60  55  83 CALM      30.17F
GLENCOE        MOCLDY    54  53  96 CALM      30.19S
FARIBAULT      MOCLDY    57  54  88 N3        30.19R
OWATONNA       CLEAR     57  52  82 CALM      30.18R VSB 1
WASECA         CLOUDY    59  52  77 NE6       30.19S
ALBERT LEA     MOCLDY    57  55  94 CALM      30.17S
$$
MNZ078>079-086>088-094>096-010800-
   Southeast Minnesota

CITY           SKY/WX    TMP DP  RH WIND       PRES   REMARKS
ROCHESTER      CLOUDY    61  56  83 N6        30.18S
RED WING       CLOUDY    61  54  77 CALM      30.18R
DODGE CENTER   CLOUDY    59  55  88 CALM      30.18S
WINONA         CLOUDY    61  57  88 NW3       30.17S
AUSTIN         CLOUDY    59  54  82 CALM      30.16S
PRESTON        CLOUDY    58  54  85 N5        30.17S
$$
ABBREVIATIONS USED IN REMARKS
   TC - TEMPERATURES IN CELSIUS
  WCI - WIND CHILL INDEX
   HX - HEAT INDEX
  VSB - VISIBILITY
$$




USA.gov is the U.S. government's official web portal to all federal, state and local government web resources and services.